TITAN 3C TRANSTAGE DEB, 1964

Orbit data source: Space-Track

TITAN 3C TRANSTAGE DEB, 1964 is space debris in LEO originally from a launch on Fri, 15 Oct 1965 UTC launched from the Air Force Eastern Test Range (AFETR). Debris objects in space refer to the collection of defunct objects orbiting the Earth. Examples of debris include non-operational satellites, rocket bodies, and fragments generated from explosions, collisions, or faulty payload assembly.

Loading next visibility...
Identifier
1964, 1965-082GZ
Orbit
LEO
Country
Flag of USUS
Related business
Manufacturer
Unknown
Mission
Spacecraft
Bus & Motor
Unknown
Mass
Unknown
Launch date (UTC)
1965-10-15 (61 years ago)
Launch vehicle
Unknown
Launch site
Air Force Eastern Test Range (AFETR)
Object type
Payload
Rocket body
Debris
Shape & HBR
Unknown shape, 0.1 m
Radar Cross Section
Small (<0.1 m²)

Expand to show TLE details & history
Last TLE update: 2 days ago

TLE from 2 days ago
0 TITAN 3C TRANSTAGE DEB
1 01964U 65082GZ  26134.83627043  .00000536  00000-0  17510-3 0  9991
2 01964  32.2013 332.0629 0175943 290.5369  67.6467 14.26315720112888
Epoch: 2026-05-14T20:04Z
TLE epoch observation values (Epoch: 2026-05-14T20:04:13.765Z)
Latitude
-0.00003°
Longitude
158.42927°
Altitude
756.624 km
Speed
7.502 km/s
True Right ascension
22h 08m 15s
True Declination
0° 00' 00"
Sunlit
Object was in daylight at epoch
Visualization orbit readout
Latitude
Unknown
Longitude
Unknown
Altitude
Unknown
Speed
Unknown
Apparent Right ascension
Unknown
Apparent Declination
Unknown
Sunlit
N/A
Visualization observer readout
Local Sidereal Time
20:16:37
Azimuth
Unknown
Elevation
Unknown
Doppler factor
Unknown
Orbital elements
Apogee altitude
934.028 km
Perigee altitude
681.172 km
Semi-major axis
7,185.737 km
Eccentricity
0.01759
Inclination
32.2013°
RAAN
332.0629°
Arg. of periapsis
290.5369°
True anomaly
69.52674°
Mean anomaly
67.6467°
Eccentric anomaly
68.58518°
Mean motion
3.56317 °/min
Orbital period
101.03 mins
BSTAR
0.0001751

Documentation

Showing up to 5 results
|